Monarch Pass, CO

3:53 PM MDT on July 20, 2017 (GMT -0600)
Monarch Pass

Weather History for KMYP - February, 2013

Change the Weather History Date:

Monday, February 25, 2013

  Actual Average (KALS) Record (KALS)
Temperature  
Mean Temperature 5 °F -  
Max Temperature 12 °F 43 °F 66 °F (1986)
Min Temperature -2 °F 7 °F -23 °F (1960)
Degree Days  
Heating Degree Days 60    
Moisture  
Dew Point 1 °F    
Average Humidity 82    
Maximum Humidity 92    
Minimum Humidity 73    
Precipitation  
Precipitation 0.00 in - - ()
Sea Level Pressure  
Sea Level Pressure 29.96 in    
Wind  
Wind Speed 18 mph (WSW)    
Max Wind Speed 38 mph    
Max Gust Speed 24 mph    
Averages and records for this station are not official NWS values.
T = Trace of Precipitation, MM = Missing Value Source: NWS Daily Summary

Daily Weather History Graph

Daily Weather History Graph

Search for Another Location

Airport or City:

Trip Planner

Search our weather history database for the weather conditions in past years. The results will help you decide how hot, cold, wet, or windy it might be!

Date:

Astronomy

Feb. 25, 2013 Rise Set
Actual Time 6:41 AM MST 5:54 PM MST
Civil Twilight 6:15 AM MST 6:20 PM MST
Nautical Twilight 5:44 AM MST 6:51 PM MST
Astronomical Twilight 5:14 AM MST 7:22 PM MST
Moon 6:09 PM MST (2/25) 6:14 AM MST (2/25)
Length of Visible Light 12h 05m
Length of Day
11h 12m
Full, 100% of the Moon is Illuminated
Feb 25
Full
Feb 25
Full
Mar 4
Last Quarter
Mar 11
New
Mar 19
First Quarter

Hourly Weather History & Observations

Time (MST) Temp. Windchill Dew Point Humidity Pressure Visibility Wind Dir Wind Speed Gust Speed Precip Events Conditions
12:14 AM 1.4 °F - -4.0 °F 78% 29.92 in - North - - N/A   Mostly Cloudy
12:34 AM 1.4 °F - -4.0 °F 78% 29.93 in - North - - N/A   Scattered Clouds
12:54 AM 1.4 °F - -2.2 °F 85% 29.94 in - North - - N/A   Unknown
1:13 AM 1.4 °F - -2.2 °F 85% 29.94 in - North - - N/A   Unknown
1:34 AM 1.4 °F - -4.0 °F 78% 29.94 in - North - - N/A   Clear
1:54 AM 1.4 °F - -2.2 °F 85% 29.94 in - North - - N/A   Unknown
2:14 AM 1.4 °F - -2.2 °F 85% 29.94 in - North - - N/A   Unknown
2:33 AM 3.2 °F - -0.4 °F 85% 29.94 in - North - - N/A   Unknown
2:53 AM 1.4 °F - -2.2 °F 85% 29.94 in - North - - N/A   Unknown
3:13 AM 3.2 °F - -0.4 °F 85% 29.94 in - North - - N/A   Clear
3:33 AM 3.2 °F - -0.4 °F 85% 29.94 in - North - - N/A   Unknown
3:53 AM 3.2 °F - -0.4 °F 85% 29.94 in - North - - N/A   Clear
4:13 AM 3.2 °F - -0.4 °F 85% 29.94 in - North - - N/A   Unknown
4:34 AM 1.4 °F - -2.2 °F 85% 29.94 in - North - - N/A   Unknown
4:54 AM 1.4 °F - -4.0 °F 78% 29.95 in - North - - N/A   Unknown
5:14 AM 3.2 °F - -0.4 °F 85% 29.95 in - North - - N/A   Unknown
5:34 AM 1.4 °F - -4.0 °F 78% 29.96 in - North - - N/A   Clear
5:54 AM 1.4 °F - -4.0 °F 78% 29.96 in - North - - N/A   Clear
6:14 AM -0.4 °F - -5.8 °F 78% 29.96 in - North - - N/A   Clear
6:34 AM -0.4 °F - -5.8 °F 78% 29.97 in - North - - N/A   Clear
6:53 AM -0.4 °F - -5.8 °F 78% 29.97 in - North - - N/A   Clear
7:14 AM -2.2 °F - -5.8 °F 85% 29.98 in - North - - N/A   Unknown
7:34 AM -0.4 °F - -5.8 °F 78% 29.98 in - North - - N/A   Clear
7:53 AM -2.2 °F - -5.8 °F 85% 29.99 in - North - - N/A   Unknown
8:13 AM -0.4 °F - -5.8 °F 78% 29.99 in - North - - N/A   Clear
8:33 AM -0.4 °F - -5.8 °F 78% 29.99 in - North - - N/A   Clear
8:53 AM -0.4 °F - -5.8 °F 78% 29.99 in - North - - N/A   Clear
9:13 AM -0.4 °F - -5.8 °F 78% 29.99 in - North - - N/A   Clear
9:34 AM 1.4 °F - -4.0 °F 78% 29.99 in - North - - N/A   Clear
9:53 AM 3.2 °F - -0.4 °F 85% 29.99 in - North - - N/A   Unknown
10:13 AM 3.2 °F - -0.4 °F 85% 29.99 in - North - - N/A   Unknown
10:34 AM 3.2 °F - -0.4 °F 85% 29.99 in - North - - N/A   Unknown
10:53 AM 3.2 °F - -0.4 °F 85% 29.99 in - North - - N/A   Unknown
11:13 AM 5.0 °F - 1.4 °F 85% 29.99 in - North - - N/A   Unknown
11:34 AM 5.0 °F - 1.4 °F 85% 30.00 in - North - - N/A   Unknown
11:53 AM 5.0 °F -11.6 °F 3.2 °F 92% 30.01 in - SW 12.7 mph - N/A   Unknown
12:13 PM 6.8 °F - 3.2 °F 85% 29.99 in - North - - N/A   Unknown
12:34 PM 8.6 °F -8.3 °F 3.2 °F 79% 29.99 in - SW 15.0 mph - N/A   Unknown
12:54 PM 6.8 °F - 3.2 °F 85% 29.99 in - North - - N/A   Unknown
1:13 PM 8.6 °F - 3.2 °F 79% 29.99 in - North - - N/A   Unknown
1:34 PM 8.6 °F - 5.0 °F 85% 29.99 in - North - - N/A   Unknown
1:53 PM 8.6 °F - 5.0 °F 85% 29.99 in - North - - N/A   Unknown
2:13 PM 8.6 °F -9.5 °F 5.0 °F 85% 29.99 in - SW 17.3 mph - N/A   Unknown
2:34 PM 8.6 °F -9.5 °F 5.0 °F 85% 29.99 in - SW 17.3 mph 24.2 mph N/A   Unknown
2:53 PM 10.4 °F - 5.0 °F 79% 29.99 in - North - - N/A   Unknown
3:14 PM 10.4 °F -8.2 °F 5.0 °F 79% 29.99 in - SW 19.6 mph - N/A   Unknown
3:34 PM 10.4 °F -3.3 °F 6.8 °F 85% 29.99 in - WSW 10.4 mph - N/A   Unknown
3:53 PM 10.4 °F -7.7 °F 5.0 °F 79% 29.99 in - WSW 18.4 mph - N/A   Unknown
4:13 PM 10.4 °F - 5.0 °F 79% 29.99 in - North - - N/A   Unknown
4:33 PM 10.4 °F -5.4 °F 6.8 °F 85% 29.99 in - WSW 13.8 mph - N/A   Unknown
4:53 PM 10.4 °F -5.4 °F 8.6 °F 92% 29.99 in - WSW 13.8 mph - N/A   Unknown
5:12 PM 12.2 °F - 8.6 °F 85% 29.98 in - North - - N/A   Unknown
5:33 PM 10.4 °F - 5.0 °F 79% 29.97 in - North - - N/A   Unknown
5:53 PM 8.6 °F - 5.0 °F 85% 29.97 in - North - - N/A   Unknown
6:13 PM 8.6 °F - 3.2 °F 79% 29.97 in - North - - N/A   Unknown
6:33 PM 6.8 °F - 3.2 °F 85% 29.97 in - North - - N/A   Unknown
7:13 PM 8.6 °F -13.1 °F 3.2 °F 79% 29.96 in - WSW 26.5 mph - N/A   Unknown
7:33 PM 8.6 °F - 3.2 °F 79% 29.96 in - North - - N/A   Unknown
7:53 PM 8.6 °F - 3.2 °F 79% 29.95 in - North - - N/A   Unknown
8:13 PM 8.6 °F - 3.2 °F 79% 29.96 in - North - - N/A   Clear
8:33 PM 6.8 °F - 3.2 °F 85% 29.95 in - North - - N/A   Unknown
8:52 PM 6.8 °F - 3.2 °F 85% 29.94 in - North - - N/A   Unknown
9:13 PM 8.6 °F - 3.2 °F 79% 29.93 in - North - - N/A   Unknown
9:34 PM 6.8 °F - 3.2 °F 85% 29.93 in - North - - N/A   Unknown
9:53 PM 6.8 °F -18.8 °F 3.2 °F 85% 29.92 in - West 38.0 mph - N/A   Unknown
10:13 PM 8.6 °F - 3.2 °F 79% 29.92 in - North - - N/A Thunderstorm Thunderstorm
10:33 PM 8.6 °F -16.3 °F 3.2 °F 79% 29.92 in - West 38.0 mph - N/A   Scattered Clouds
10:53 PM 8.6 °F - 3.2 °F 79% 29.92 in - North - - N/A   Mostly Cloudy
11:13 PM 10.4 °F -11.4 °F 3.2 °F 73% 29.91 in - West 28.8 mph - N/A   Overcast
11:33 PM 10.4 °F - 3.2 °F 73% 29.90 in - North - - N/A   Mostly Cloudy
11:52 PM 10.4 °F - 3.2 °F 73% 29.91 in - North - - N/A   Scattered Clouds